Station Historical Data
Daily Summary for May 31, 2017 Units:  Metric    English   Both
« Previous Day
Next Day »
Daily Weekly Monthly Yearly Custom
  High: Low: Average:
Temperature: 22.4 °C 12.6 °C 17.8 °C
Dew Point: 11.9 °C 7.8 °C 9.9 °C
Humidity: 81% 41% 61%
Wind Speed: 27.4km/h 0km/h 8.5km/h
Wind Gust: 38.6km/h - -
Wind- - SW
Pressure: 1013.8 hPa 1010.7 hPa -
Precipitation: 0 mm    
Historical Graphs
 
 
Tabular Data for May 31, 2017
Time Temperature Dew Point Pressure Wind Wind Speed Wind Gust Humidity Rainfall Rate (Hourly)
00:04 17.8 °C 8.9 °C 1012.4 hPa SW 3.2 km/h 11.3 km/h 56% 0 mm
00:09 17.9 °C 8.7 °C 1012.4 hPa SW 4.8 km/h 17.7 km/h 55% 0 mm
00:14 17.9 °C 8.8 °C 1012.4 hPa SSW 3.2 km/h 11.3 km/h 55% 0 mm
00:19 18.1 °C 8.7 °C 1012.4 hPa WSW 4.8 km/h 11.3 km/h 54% 0 mm
00:24 18.2 °C 8.8 °C 1012.4 hPa SW 4.8 km/h 12.9 km/h 54% 0 mm
00:29 18.4 °C 8.6 °C 1012.8 hPa WSW 6.4 km/h 14.5 km/h 53% 0 mm
00:34 18.7 °C 8.6 °C 1012.8 hPa West 8 km/h 24.1 km/h 52% 0 mm
00:39 18.8 °C 9 °C 1012.8 hPa SW 11.3 km/h 24.1 km/h 53% 0 mm
00:44 18.7 °C 8.9 °C 1012.8 hPa SW 9.7 km/h 25.7 km/h 53% 0 mm
00:49 18.5 °C 9.3 °C 1012.4 hPa SW 9.7 km/h 25.7 km/h 55% 0 mm
00:54 18.1 °C 9.2 °C 1012.8 hPa SW 9.7 km/h 24.1 km/h 56% 0 mm
00:59 17.8 °C 9.4 °C 1012.8 hPa SW 6.4 km/h 16.1 km/h 58% 0 mm
01:09 17.5 °C 9.7 °C 1012.8 hPa WNW 9.7 km/h 17.7 km/h 60% 0 mm
01:14 17.4 °C 9.6 °C 1012.8 hPa SW 8 km/h 19.3 km/h 60% 0 mm
01:19 17.2 °C 9.6 °C 1012.8 hPa SW 8 km/h 19.3 km/h 61% 0 mm
01:24 17.1 °C 9.5 °C 1012.8 hPa SSW 4.8 km/h 14.5 km/h 61% 0 mm
01:29 17 °C 9.4 °C 1012.8 hPa SW 8 km/h 16.1 km/h 61% 0 mm
01:34 16.9 °C 9.6 °C 1012.8 hPa SW 12.9 km/h 16.1 km/h 62% 0 mm
01:39 16.8 °C 9.4 °C 1012.8 hPa SW 6.4 km/h 16.1 km/h 62% 0 mm
01:44 16.7 °C 9.4 °C 1012.8 hPa SW 6.4 km/h 16.1 km/h 62% 0 mm
01:49 16.7 °C 9.3 °C 1012.8 hPa SSW 11.3 km/h 16.1 km/h 62% 0 mm
01:54 16.8 °C 9.4 °C 1012.8 hPa WSW 3.2 km/h 11.3 km/h 62% 0 mm
01:59 16.7 °C 9.4 °C 1013.1 hPa WSW 4.8 km/h 19.3 km/h 62% 0 mm
02:04 16.7 °C 9.7 °C 1013.1 hPa SW 4.8 km/h 14.5 km/h 63% 0 mm
02:09 16.8 °C 9.7 °C 1013.1 hPa West 9.7 km/h 24.1 km/h 63% 0 mm
02:14 16.8 °C 9.7 °C 1013.1 hPa WSW 9.7 km/h 24.1 km/h 63% 0 mm
02:19 16.7 °C 10.1 °C 1013.1 hPa WSW 9.7 km/h 17.7 km/h 65% 0 mm
02:24 16.4 °C 10.2 °C 1013.1 hPa WSW 9.7 km/h 17.7 km/h 67% 0 mm
02:29 16.1 °C 10.2 °C 1013.1 hPa WSW 4.8 km/h 14.5 km/h 68% 0 mm
02:34 15.9 °C 10.3 °C 1013.1 hPa West 8 km/h 17.7 km/h 69% 0 mm
02:39 15.8 °C 10.3 °C 1013.1 hPa WSW 8 km/h 17.7 km/h 70% 0 mm
02:44 15.6 °C 10.4 °C 1013.1 hPa WSW 6.4 km/h 16.1 km/h 71% 0 mm
02:49 15.5 °C 10.3 °C 1013.4 hPa WSW 6.4 km/h 16.1 km/h 71% 0 mm
02:54 15.5 °C 10.3 °C 1013.4 hPa WSW 3.2 km/h 11.3 km/h 71% 0 mm
02:59 15.4 °C 10.4 °C 1013.1 hPa WSW 3.2 km/h 9.7 km/h 72% 0 mm
03:04 15.3 °C 10.3 °C 1013.4 hPa SW 3.2 km/h 11.3 km/h 72% 0 mm
03:09 15.3 °C 10.5 °C 1013.4 hPa WSW 4.8 km/h 11.3 km/h 73% 0 mm
03:14 15.2 °C 10.3 °C 1013.1 hPa WSW 4.8 km/h 11.3 km/h 73% 0 mm
03:19 15 °C 10.4 °C 1013.1 hPa WSW 3.2 km/h 6.4 km/h 74% 0 mm
03:24 14.8 °C 10.2 °C 1013.1 hPa WSW 3.2 km/h 6.4 km/h 74% 0 mm
03:29 14.5 °C 10.1 °C 1013.1 hPa SW 3.2 km/h 6.4 km/h 75% 0 mm
03:34 14.3 °C 10.2 °C 1013.1 hPa Calm   4.8 km/h 76% 0 mm
03:39 14.1 °C 9.9 °C 1013.1 hPa SW 1.6 km/h 4.8 km/h 76% 0 mm
03:49 14.3 °C 10.2 °C 1013.1 hPa WSW 3.2 km/h 9.7 km/h 76% 0 mm
03:54 14.3 °C 10.2 °C 1013.1 hPa Calm   4.8 km/h 76% 0 mm
03:59 14.3 °C 10.2 °C 1013.1 hPa SW 3.2 km/h 8 km/h 76% 0 mm
04:04 14.3 °C 10.2 °C 1013.1 hPa SW 3.2 km/h 8 km/h 76% 0 mm
04:09 14.3 °C 10.2 °C 1013.1 hPa SW 3.2 km/h 8 km/h 76% 0 mm
04:14 14.3 °C 10.3 °C 1013.1 hPa SW 3.2 km/h 6.4 km/h 77% 0 mm
04:19 14.2 °C 10.2 °C 1013.1 hPa SW 3.2 km/h 6.4 km/h 77% 0 mm
04:24 14 °C 10.2 °C 1013.1 hPa SW 3.2 km/h 8 km/h 78% 0 mm
04:29 13.9 °C 10.1 °C 1013.1 hPa SW 3.2 km/h 9.7 km/h 78% 0 mm
04:34 13.8 °C 10 °C 1013.1 hPa SSW 4.8 km/h 6.4 km/h 78% 0 mm
04:39 13.8 °C 10.3 °C 1013.1 hPa SW 3.2 km/h 6.4 km/h 79% 0 mm
04:44 13.7 °C 10.2 °C 1013.1 hPa SW 3.2 km/h 6.4 km/h 79% 0 mm
04:49 13.6 °C 10.1 °C 1013.1 hPa SSW 1.6 km/h 8 km/h 79% 0 mm
04:54 13.6 °C 10.1 °C 1013.1 hPa SSW 3.2 km/h 9.7 km/h 79% 0 mm
04:59 13.5 °C 9.9 °C 1013.1 hPa Calm   4.8 km/h 79% 0 mm
05:04 13.3 °C 9.9 °C 1013.1 hPa Calm   4.8 km/h 80% 0 mm
05:09 13.1 °C 9.7 °C 1013.1 hPa Calm   4.8 km/h 80% 0 mm
05:14 12.9 °C 9.5 °C 1013.1 hPa Calm     80% 0 mm
05:19 12.8 °C 9.6 °C 1013.1 hPa Calm     81% 0 mm
05:24 12.6 °C 9.4 °C 1013.1 hPa Calm     81% 0 mm
05:29 12.6 °C 9.2 °C 1013.1 hPa Calm     80% 0 mm
05:34 12.6 °C 9.2 °C 1013.1 hPa South 1.6 km/h 6.4 km/h 80% 0 mm
05:39 12.7 °C 9.1 °C 1013.1 hPa Calm   6.4 km/h 79% 0 mm
05:44 12.7 °C 9 °C 1013.1 hPa South 1.6 km/h 8 km/h 78% 0 mm
05:49 12.8 °C 8.8 °C 1013.1 hPa South 3.2 km/h 6.4 km/h 77% 0 mm
05:59 12.8 °C 8.7 °C 1013.1 hPa South 1.6 km/h 8 km/h 76% 0 mm
06:04 12.8 °C 8.7 °C 1013.1 hPa Calm   8 km/h 76% 0 mm
06:09 12.7 °C 8.6 °C 1013.1 hPa South 3.2 km/h 8 km/h 76% 0 mm
06:14 12.7 °C 8.6 °C 1013.1 hPa SSW 1.6 km/h 6.4 km/h 76% 0 mm
06:19 12.7 °C 8.6 °C 1013.1 hPa South 1.6 km/h 6.4 km/h 76% 0 mm
06:24 12.8 °C 8.7 °C 1013.1 hPa South 1.6 km/h 6.4 km/h 76% 0 mm
06:29 12.9 °C 8.8 °C 1013.1 hPa South 4.8 km/h 4.8 km/h 76% 0 mm
06:34 13 °C 8.7 °C 1013.1 hPa South 3.2 km/h 6.4 km/h 75% 0 mm
06:39 13.3 °C 8.9 °C 1013.1 hPa South 3.2 km/h 9.7 km/h 75% 0 mm
06:44 13.6 °C 9 °C 1013.1 hPa SSE 3.2 km/h 9.7 km/h 74% 0 mm
06:49 13.8 °C 9 °C 1013.1 hPa South 4.8 km/h 9.7 km/h 73% 0 mm
06:54 14 °C 9.1 °C 1013.1 hPa South 4.8 km/h 9.7 km/h 72% 0 mm
06:59 14.3 °C 9.1 °C 1013.1 hPa South 3.2 km/h 9.7 km/h 71% 0 mm
07:04 14.6 °C 9.3 °C 1013.1 hPa Calm   6.4 km/h 71% 0 mm
07:09 14.9 °C 9.5 °C 1013.1 hPa SSW 3.2 km/h 4.8 km/h 70% 0 mm
07:14 15 °C 9.3 °C 1013.1 hPa SSW 3.2 km/h 9.7 km/h 69% 0 mm
07:19 15.2 °C 9.5 °C 1013.1 hPa South 1.6 km/h 6.4 km/h 69% 0 mm
07:24 15.4 °C 9.3 °C 1013.1 hPa South 3.2 km/h 11.3 km/h 67% 0 mm
07:29 15.4 °C 9.3 °C 1013.1 hPa SSW 4.8 km/h 6.4 km/h 67% 0 mm
07:34 15.3 °C 9.4 °C 1013.1 hPa SSW 3.2 km/h 9.7 km/h 68% 0 mm
07:39 15.4 °C 9.5 °C 1013.1 hPa SSW 3.2 km/h 9.7 km/h 68% 0 mm
07:44 15.6 °C 9.7 °C 1013.1 hPa SSW 3.2 km/h 8 km/h 68% 0 mm
07:49 15.8 °C 9.7 °C 1013.1 hPa SSW 3.2 km/h 8 km/h 67% 0 mm
07:54 16.1 °C 9.7 °C 1013.1 hPa SSW 3.2 km/h 6.4 km/h 66% 0 mm
07:59 16.2 °C 9.6 °C 1013.1 hPa SW 3.2 km/h 8 km/h 65% 0 mm
08:04 16.3 °C 9.7 °C 1013.1 hPa SW 3.2 km/h 8 km/h 65% 0 mm
08:09 16.8 °C 9.9 °C 1013.1 hPa Calm   6.4 km/h 64% 0 mm
08:14 17.1 °C 9.5 °C 1013.1 hPa SSW 1.6 km/h 14.5 km/h 61% 0 mm
08:19 17.4 °C 9.6 °C 1013.1 hPa SSW 6.4 km/h 9.7 km/h 60% 0 mm
08:24 17.5 °C 9.7 °C 1013.4 hPa WSW 3.2 km/h 12.9 km/h 60% 0 mm
08:29 18.1 °C 9.9 °C 1013.4 hPa SSW 11.3 km/h 17.7 km/h 59% 0 mm
08:34 18.3 °C 9.6 °C 1013.1 hPa South 6.4 km/h 17.7 km/h 57% 0 mm
08:39 18.7 °C 10 °C 1013.1 hPa SW 12.9 km/h 22.5 km/h 57% 0 mm
08:44 18.3 °C 9.4 °C 1013.4 hPa SW 9.7 km/h 22.5 km/h 56% 0 mm
08:49 18.1 °C 9.4 °C 1013.4 hPa SW 11.3 km/h 24.1 km/h 57% 0 mm
08:54 17.7 °C 9.1 °C 1013.4 hPa SW 11.3 km/h 27.4 km/h 57% 0 mm
08:59 17.6 °C 9.2 °C 1013.8 hPa WSW 12.9 km/h 27.4 km/h 58% 0 mm
09:04 17.3 °C 9.5 °C 1013.4 hPa SW 12.9 km/h 27.4 km/h 60% 0 mm
09:09 17 °C 9.7 °C 1013.8 hPa SW 11.3 km/h 29 km/h 62% 0 mm
09:14 16.7 °C 10.1 °C 1013.4 hPa SSW 11.3 km/h 22.5 km/h 65% 0 mm
09:19 16.7 °C 9.8 °C 1013.4 hPa SSW 11.3 km/h 29 km/h 64% 0 mm
09:24 16.9 °C 10.3 °C 1013.4 hPa SW 8 km/h 20.9 km/h 65% 0 mm
09:29 17.3 °C 10.2 °C 1013.1 hPa SW 12.9 km/h 20.9 km/h 63% 0 mm
09:34 18.2 °C 10.5 °C 1013.1 hPa SW 11.3 km/h 20.9 km/h 61% 0 mm
09:39 18.8 °C 10.7 °C 1013.1 hPa SW 11.3 km/h 20.9 km/h 59% 0 mm
09:44 19.3 °C 10.3 °C 1013.1 hPa SW 9.7 km/h 20.9 km/h 56% 0 mm
09:49 19.7 °C 10.4 °C 1013.1 hPa SW 9.7 km/h 22.5 km/h 55% 0 mm
09:54 19.8 °C 10.5 °C 1013.1 hPa SW 9.7 km/h 22.5 km/h 55% 0 mm
09:59 19.7 °C 8.7 °C 1013.1 hPa South 16.1 km/h 27.4 km/h 49% 0 mm
10:04 19.7 °C 8.9 °C 1013.1 hPa WSW 17.7 km/h 24.1 km/h 50% 0 mm
10:09 19.9 °C 9.2 °C 1013.1 hPa SW 12.9 km/h 24.1 km/h 50% 0 mm
10:14 20 °C 8.9 °C 1012.8 hPa SW 11.3 km/h 22.5 km/h 49% 0 mm
10:24 20.7 °C 9.3 °C 1012.8 hPa SW 8 km/h 24.1 km/h 48% 0 mm
10:29 20.6 °C 9.8 °C 1012.8 hPa SW 9.7 km/h 24.1 km/h 50% 0 mm
10:34 20.8 °C 9.1 °C 1012.8 hPa WSW 8 km/h 17.7 km/h 47% 0 mm
10:39 20.7 °C 9.6 °C 1012.8 hPa WSW 9.7 km/h 20.9 km/h 49% 0 mm
10:44 21.1 °C 9.3 °C 1012.8 hPa SW 9.7 km/h 20.9 km/h 47% 0 mm
10:49 20.9 °C 9.2 °C 1012.8 hPa SW 9.7 km/h 25.7 km/h 47% 0 mm
10:54 21.3 °C 9.5 °C 1012.8 hPa WSW 11.3 km/h 25.7 km/h 47% 0 mm
10:59 21.4 °C 8.7 °C 1012.8 hPa WSW 8 km/h 24.1 km/h 44% 0 mm
11:04 21.5 °C 9.1 °C 1012.4 hPa SW 12.9 km/h 25.7 km/h 45% 0 mm
11:09 21.7 °C 9.2 °C 1012.8 hPa SW 14.5 km/h 22.5 km/h 45% 0 mm
11:14 21.7 °C 8.9 °C 1012.4 hPa WSW 11.3 km/h 22.5 km/h 44% 0 mm
11:19 21.7 °C 8.9 °C 1012.4 hPa SW 12.9 km/h 32.2 km/h 44% 0 mm
11:24 21.8 °C 8.7 °C 1012.4 hPa SW 14.5 km/h 32.2 km/h 43% 0 mm
11:29 22.1 °C 8.9 °C 1012.4 hPa WSW 14.5 km/h 25.7 km/h 43% 0 mm
11:34 22.1 °C 8.2 °C 1012.4 hPa WSW 12.9 km/h 25.7 km/h 41% 0 mm
11:39 22.1 °C 9.2 °C 1012.8 hPa SSW 19.3 km/h 35.4 km/h 44% 0 mm
11:44 21.9 °C 8.4 °C 1012.8 hPa SW 14.5 km/h 35.4 km/h 42% 0 mm
11:49 21.6 °C 8.4 °C 1012.8 hPa SW 14.5 km/h 24.1 km/h 43% 0 mm
11:54 21.2 °C 7.8 °C 1012.4 hPa WSW 9.7 km/h 35.4 km/h 42% 0 mm
11:59 21.2 °C 8.1 °C 1012.4 hPa WNW 9.7 km/h 38.6 km/h 43% 0 mm
12:04 21.7 °C 8.9 °C 1012.4 hPa West 11.3 km/h 20.9 km/h 44% 0 mm
12:09 21.8 °C 9.1 °C 1012.4 hPa WSW 9.7 km/h 27.4 km/h 44% 0 mm
12:14 21.9 °C 9.1 °C 1012.4 hPa WSW 12.9 km/h 27.4 km/h 44% 0 mm
12:19 21.9 °C 9.1 °C 1012.4 hPa WSW 12.9 km/h 25.7 km/h 44% 0 mm
12:24 21.7 °C 8.6 °C 1012.4 hPa WSW 12.9 km/h 27.4 km/h 43% 0 mm
12:29 20.8 °C 8.7 °C 1012.4 hPa WSW 14.5 km/h 30.6 km/h 46% 0 mm
12:34 21.1 °C 9.7 °C 1012.4 hPa SW 27.4 km/h 29 km/h 48% 0 mm
12:39 21.1 °C 10.2 °C 1012.4 hPa WNW 8 km/h 30.6 km/h 50% 0 mm
12:44 20.8 °C 9.1 °C 1012.4 hPa WSW 16.1 km/h 32.2 km/h 47% 0 mm
12:49 20.9 °C 9.2 °C 1012.4 hPa WSW 16.1 km/h 32.2 km/h 47% 0 mm
12:54 20.9 °C 9.5 °C 1012.4 hPa WSW 12.9 km/h 30.6 km/h 48% 0 mm
12:59 21.3 °C 9.5 °C 1012.1 hPa WSW 9.7 km/h 33.8 km/h 47% 0 mm
13:04 21.2 °C 10 °C 1012.1 hPa SSW 11.3 km/h 27.4 km/h 49% 0 mm
13:09 21.1 °C 9.7 °C 1012.4 hPa WSW 14.5 km/h 37 km/h 48% 0 mm
13:14 20.7 °C 10.2 °C 1012.1 hPa SW 16.1 km/h 37 km/h 51% 0 mm
13:19 20.6 °C 9.8 °C 1012.1 hPa SSW 9.7 km/h 29 km/h 50% 0 mm
13:24 20.9 °C 10.7 °C 1012.1 hPa SW 8 km/h 24.1 km/h 52% 0 mm
13:29 21 °C 10.8 °C 1012.1 hPa SW 8 km/h 20.9 km/h 52% 0 mm
13:34 21.3 °C 9.8 °C 1012.1 hPa West 12.9 km/h 25.7 km/h 48% 0 mm
13:39 21.4 °C 10.6 °C 1011.7 hPa SW 6.4 km/h 22.5 km/h 50% 0 mm
13:44 21.7 °C 10.2 °C 1011.7 hPa WSW 11.3 km/h 27.4 km/h 48% 0 mm
13:49 21.3 °C 9.8 °C 1011.7 hPa WSW 12.9 km/h 27.4 km/h 48% 0 mm
13:54 21.4 °C 10.3 °C 1011.4 hPa WSW 12.9 km/h 24.1 km/h 49% 0 mm
13:59 21.5 °C 10 °C 1011.4 hPa WSW 11.3 km/h 24.1 km/h 48% 0 mm
14:04 21.6 °C 9.8 °C 1011.4 hPa West 11.3 km/h 22.5 km/h 47% 0 mm
14:09 22.1 °C 10.3 °C 1011.1 hPa SW 6.4 km/h 20.9 km/h 47% 0 mm
14:14 22.4 °C 10.6 °C 1011.1 hPa WSW 9.7 km/h 20.9 km/h 47% 0 mm
14:19 22.3 °C 9.4 °C 1011.1 hPa SW 12.9 km/h 24.1 km/h 44% 0 mm
14:24 22.1 °C 8.9 °C 1011.1 hPa West 12.9 km/h 22.5 km/h 43% 0 mm
14:29 21.8 °C 8.7 °C 1011.1 hPa SW 20.9 km/h 29 km/h 43% 0 mm
14:34 21.8 °C 9.1 °C 1011.1 hPa SW 24.1 km/h 29 km/h 44% 0 mm
14:39 21.9 °C 9.1 °C 1011.1 hPa West 12.9 km/h 27.4 km/h 44% 0 mm
14:44 22.2 °C 9.3 °C 1011.1 hPa WSW 12.9 km/h 30.6 km/h 44% 0 mm
14:49 21.8 °C 8.7 °C 1011.1 hPa WSW 14.5 km/h 30.6 km/h 43% 0 mm
14:54 22 °C 10.2 °C 1011.1 hPa WSW 14.5 km/h 27.4 km/h 47% 0 mm
14:59 22.3 °C 9.5 °C 1011.1 hPa WSW 12.9 km/h 27.4 km/h 44% 0 mm
15:04 21.9 °C 9.1 °C 1011.1 hPa WSW 12.9 km/h 25.7 km/h 44% 0 mm
15:09 21.9 °C 9.4 °C 1011.1 hPa WSW 14.5 km/h 29 km/h 45% 0 mm
15:14 21.5 °C 9.1 °C 1011.1 hPa SW 24.1 km/h 30.6 km/h 45% 0 mm
15:19 21.6 °C 9.8 °C 1011.1 hPa WSW 14.5 km/h 27.4 km/h 47% 0 mm
15:24 21.6 °C 10.1 °C 1011.1 hPa WSW 20.9 km/h 30.6 km/h 48% 0 mm
15:29 21.3 °C 10.1 °C 1011.4 hPa WNW 20.9 km/h 32.2 km/h 49% 0 mm
15:39 20.6 °C 10.7 °C 1011.1 hPa SW 11.3 km/h 29 km/h 53% 0 mm
15:44 20.8 °C 10.9 °C 1011.1 hPa WSW 14.5 km/h 29 km/h 53% 0 mm
15:49 20.6 °C 11 °C 1011.1 hPa WSW 14.5 km/h 27.4 km/h 54% 0 mm
15:54 20.2 °C 10.9 °C 1011.1 hPa WSW 16.1 km/h 33.8 km/h 55% 0 mm
15:59 20.4 °C 10.8 °C 1011.1 hPa WNW 20.9 km/h 35.4 km/h 54% 0 mm
16:04 20.6 °C 11.4 °C 1011.1 hPa SW 6.4 km/h 29 km/h 56% 0 mm
16:09 20.4 °C 10.8 °C 1011.1 hPa West 19.3 km/h 32.2 km/h 54% 0 mm
16:14 20.5 °C 11.7 °C 1011.1 hPa WSW 16.1 km/h 32.2 km/h 57% 0 mm
16:19 20.5 °C 11.4 °C 1011.1 hPa WSW 16.1 km/h 30.6 km/h 56% 0 mm
16:24 20.7 °C 11.3 °C 1011.1 hPa WSW 16.1 km/h 35.4 km/h 55% 0 mm
16:29 20.8 °C 11.7 °C 1011.1 hPa WSW 9.7 km/h 24.1 km/h 56% 0 mm
16:34 20.8 °C 11.4 °C 1011.1 hPa West 14.5 km/h 30.6 km/h 55% 0 mm
16:39 20.4 °C 11.1 °C 1011.1 hPa WNW 22.5 km/h 32.2 km/h 55% 0 mm
16:44 20.6 °C 10.9 °C 1011.1 hPa WSW 16.1 km/h 32.2 km/h 54% 0 mm
16:49 20.5 °C 11.9 °C 1011.1 hPa WSW 14.5 km/h 30.6 km/h 58% 0 mm
16:54 20.3 °C 11.2 °C 1011.1 hPa WSW 14.5 km/h 35.4 km/h 56% 0 mm
16:59 20.4 °C 11.1 °C 1010.7 hPa SW 14.5 km/h 25.7 km/h 55% 0 mm
17:04 20.3 °C 10.7 °C 1010.7 hPa SW 8 km/h 30.6 km/h 54% 0 mm
17:09 20.6 °C 10.7 °C 1010.7 hPa SW 17.7 km/h 27.4 km/h 53% 0 mm
17:14 20.5 °C 9.7 °C 1010.7 hPa WSW 14.5 km/h 29 km/h 50% 0 mm
17:19 20.4 °C 9.9 °C 1010.7 hPa WSW 16.1 km/h 32.2 km/h 51% 0 mm
17:24 20.4 °C 9.9 °C 1010.7 hPa WSW 14.5 km/h 33.8 km/h 51% 0 mm
17:29 20.2 °C 10.3 °C 1010.7 hPa SW 14.5 km/h 33.8 km/h 53% 0 mm
17:34 20.1 °C 10.2 °C 1010.7 hPa WSW 14.5 km/h 35.4 km/h 53% 0 mm
17:39 19.8 °C 10.3 °C 1010.7 hPa SW 11.3 km/h 29 km/h 54% 0 mm
17:44 19.9 °C 10.6 °C 1010.7 hPa WSW 12.9 km/h 35.4 km/h 55% 0 mm
17:49 19.8 °C 10.2 °C 1010.7 hPa WNW 9.7 km/h 30.6 km/h 54% 0 mm
17:54 19.5 °C 10.5 °C 1010.7 hPa West 12.9 km/h 27.4 km/h 56% 0 mm
17:59 19.5 °C 10.5 °C 1010.7 hPa SW 9.7 km/h 27.4 km/h 56% 0 mm
18:04 19.6 °C 10.6 °C 1010.7 hPa WSW 9.7 km/h 32.2 km/h 56% 0 mm
18:09 19.4 °C 10.4 °C 1010.7 hPa SW 14.5 km/h 25.7 km/h 56% 0 mm
18:14 19.2 °C 10.5 °C 1010.7 hPa WSW 14.5 km/h 30.6 km/h 57% 0 mm
18:19 19.1 °C 10.9 °C 1010.7 hPa WSW 14.5 km/h 30.6 km/h 59% 0 mm
18:24 19.1 °C 10.8 °C 1010.7 hPa WSW 12.9 km/h 24.1 km/h 59% 0 mm
18:29 18.9 °C 10.8 °C 1010.7 hPa WSW 12.9 km/h 25.7 km/h 59% 0 mm
18:34 18.9 °C 10.7 °C 1010.7 hPa WSW 12.9 km/h 27.4 km/h 59% 0 mm
18:39 18.7 °C 10.8 °C 1010.7 hPa SW 19.3 km/h 25.7 km/h 60% 0 mm
18:44 18.7 °C 10.6 °C 1011.1 hPa WSW 12.9 km/h 24.1 km/h 59% 0 mm
18:49 18.8 °C 10.6 °C 1011.1 hPa WSW 12.9 km/h 30.6 km/h 59% 0 mm
18:54 18.8 °C 10.6 °C 1011.1 hPa WSW 8 km/h 24.1 km/h 59% 0 mm
18:59 18.7 °C 10.3 °C 1011.1 hPa SW 9.7 km/h 25.7 km/h 58% 0 mm
19:04 18.6 °C 10.4 °C 1011.1 hPa NW 11.3 km/h 25.7 km/h 59% 0 mm
19:09 18.4 °C 10.3 °C 1011.1 hPa WSW 9.7 km/h 24.1 km/h 59% 0 mm
19:14 18.2 °C 10.6 °C 1011.1 hPa WNW 14.5 km/h 22.5 km/h 61% 0 mm
19:19 18 °C 10.6 °C 1011.1 hPa WSW 14.5 km/h 25.7 km/h 62% 0 mm
19:24 17.9 °C 10.6 °C 1011.1 hPa SW 12.9 km/h 25.7 km/h 62% 0 mm
19:29 17.8 °C 10.7 °C 1011.1 hPa SW 22.5 km/h 25.7 km/h 63% 0 mm
19:34 17.7 °C 10.6 °C 1011.1 hPa WSW 16.1 km/h 24.1 km/h 63% 0 mm
19:39 17.7 °C 10.6 °C 1011.1 hPa SW 9.7 km/h 24.1 km/h 63% 0 mm
19:44 17.6 °C 10.5 °C 1011.1 hPa SSW 11.3 km/h 25.7 km/h 63% 0 mm
19:49 17.6 °C 10.7 °C 1011.4 hPa WSW 11.3 km/h 25.7 km/h 64% 0 mm
19:54 17.4 °C 10.6 °C 1011.1 hPa WSW 9.7 km/h 20.9 km/h 64% 0 mm
19:59 17.3 °C 10.4 °C 1011.1 hPa WSW 9.7 km/h 17.7 km/h 64% 0 mm
20:04 17.2 °C 10.6 °C 1011.1 hPa WSW 9.7 km/h 19.3 km/h 65% 0 mm
20:09 17.1 °C 10.7 °C 1011.1 hPa WSW 9.7 km/h 19.3 km/h 66% 0 mm
20:14 16.9 °C 10.5 °C 1011.1 hPa WSW 9.7 km/h 20.9 km/h 66% 0 mm
20:19 16.7 °C 10.6 °C 1011.1 hPa WSW 8 km/h 20.9 km/h 67% 0 mm
20:24 16.7 °C 10.6 °C 1011.1 hPa WNW 3.2 km/h 19.3 km/h 67% 0 mm
20:29 16.6 °C 10.4 °C 1011.1 hPa West 3.2 km/h 14.5 km/h 67% 0 mm
20:34 16.6 °C 10.4 °C 1011.1 hPa WSW 6.4 km/h 11.3 km/h 67% 0 mm
20:39 16.6 °C 10.6 °C 1011.1 hPa WSW 3.2 km/h 11.3 km/h 68% 0 mm
20:44 16.7 °C 10.5 °C 1011.1 hPa WNW 6.4 km/h 14.5 km/h 67% 0 mm
20:49 16.7 °C 10.3 °C 1011.1 hPa WSW 6.4 km/h 14.5 km/h 66% 0 mm
20:54 16.8 °C 10.2 °C 1011.1 hPa WSW 4.8 km/h 14.5 km/h 65% 0 mm
20:59 16.8 °C 10.2 °C 1011.4 hPa WSW 4.8 km/h 14.5 km/h 65% 0 mm
21:04 16.8 °C 10.2 °C 1011.4 hPa WSW 4.8 km/h 11.3 km/h 65% 0 mm
21:09 16.7 °C 9.9 °C 1011.4 hPa WSW 4.8 km/h 11.3 km/h 64% 0 mm
21:14 16.8 °C 9.9 °C 1011.4 hPa West 11.3 km/h 12.9 km/h 64% 0 mm
21:19 16.8 °C 9.7 °C 1011.4 hPa SW 6.4 km/h 14.5 km/h 63% 0 mm
21:24 16.8 °C 10 °C 1011.7 hPa WSW 4.8 km/h 14.5 km/h 64% 0 mm
21:29 16.6 °C 10.2 °C 1011.7 hPa West 6.4 km/h 11.3 km/h 66% 0 mm
21:34 16.6 °C 10.2 °C 1011.7 hPa SW 4.8 km/h 11.3 km/h 66% 0 mm
21:39 16.3 °C 10.2 °C 1011.7 hPa SW 6.4 km/h 11.3 km/h 67% 0 mm
21:49 15.9 °C 10.7 °C 1012.1 hPa SW 4.8 km/h 9.7 km/h 71% 0 mm
21:54 15.9 °C 10.6 °C 1011.7 hPa SW 4.8 km/h 12.9 km/h 71% 0 mm
21:59 15.8 °C 10.7 °C 1011.7 hPa SW 4.8 km/h 12.9 km/h 72% 0 mm
22:04 15.8 °C 10.9 °C 1012.1 hPa WSW 4.8 km/h 11.3 km/h 73% 0 mm
22:09 15.7 °C 10.8 °C 1012.1 hPa SW 4.8 km/h 11.3 km/h 73% 0 mm
22:14 15.6 °C 11.2 °C 1012.1 hPa SW 4.8 km/h 11.3 km/h 75% 0 mm
22:19 15.5 °C 11.1 °C 1012.1 hPa SSW 3.2 km/h 9.7 km/h 75% 0 mm
22:24 15.4 °C 11.1 °C 1012.1 hPa WSW 4.8 km/h 9.7 km/h 75% 0 mm
22:29 15.4 °C 11 °C 1012.4 hPa West 1.6 km/h 11.3 km/h 75% 0 mm
22:34 15.5 °C 11.1 °C 1012.4 hPa SW 3.2 km/h 6.4 km/h 75% 0 mm
22:39 15.5 °C 11.1 °C 1012.4 hPa SW 3.2 km/h 8 km/h 75% 0 mm
22:44 15.5 °C 11.1 °C 1012.4 hPa SW 4.8 km/h 6.4 km/h 75% 0 mm
22:49 15.4 °C 11.1 °C 1012.4 hPa SW 3.2 km/h 6.4 km/h 75% 0 mm
22:54 15.4 °C 11 °C 1012.4 hPa SW 4.8 km/h 9.7 km/h 75% 0 mm
22:59 15.3 °C 11.1 °C 1012.4 hPa SW 4.8 km/h 9.7 km/h 76% 0 mm
23:04 15.3 °C 11.1 °C 1012.4 hPa WSW 3.2 km/h 8 km/h 76% 0 mm
23:09 15.1 °C 10.9 °C 1012.4 hPa WSW 1.6 km/h 4.8 km/h 76% 0 mm
23:14 14.9 °C 10.9 °C 1012.4 hPa WSW 1.6 km/h 4.8 km/h 77% 0 mm
23:19 14.9 °C 10.9 °C 1012.4 hPa Calm   6.4 km/h 77% 0 mm
23:24 14.8 °C 10.8 °C 1012.4 hPa WSW 4.8 km/h 6.4 km/h 77% 0 mm
23:29 14.7 °C 10.9 °C 1012.4 hPa Calm   8 km/h 78% 0 mm
23:34 14.6 °C 10.8 °C 1012.4 hPa Calm     78% 0 mm
23:39 14.5 °C 10.7 °C 1012.4 hPa Calm     78% 0 mm
23:44 14.3 °C 10.7 °C 1012.4 hPa Calm     79% 0 mm
23:49 14.2 °C 10.6 °C 1012.8 hPa Calm     79% 0 mm
23:54 14.2 °C 10.8 °C 1012.8 hPa Calm   3.2 km/h 80% 0 mm
23:59 14.2 °C 10.8 °C 1012.8 hPa Calm   3.2 km/h 80% 0 mm
Buffalo, New York, USA
Compliments of Weather Underground - 2.5 mb